Location: Bu�n Treun
(12.1333°N, 108.3167°E)
Time: 22:42:19
(UTC+00:00)

CSL-04 Rocket - Pass Details

Date: 13 July 2020
Orbit: 806 x 860 km, 98.9° (Epoch: 14 August)

Event Time Altitude Azimuth Distance (km) Brightness Sun altitude
Rises 12:01:15 0° 167° (SSE) 3,420 6.5 -11.0°
Reaches altitude 10° 12:03:37 10° 167° (SSE) 2,480 5.8 -11.5°
Maximum altitude 12:09:09 89° 73° (ENE) 851 3.7 -12.7°
Drops below altitude 10° 12:14:36 10° 348° (NNW) 2,450 6.7 -13.9°
Sets 12:16:56 0° 348° (NNW) 3,376 7.4 -14.4°
